[[{"header":{"parameterUnit":"m.s-1","parameterCategory":1,"la1":30.2991,"la2":30.254,"lo1":-89.0895,"lo2":-89.0444,"dy":0.0017,"dx":0.0017,"nx":28,"ny":28,"refTime":"2025-07-31T03:00:00:Z","depth":0,"parameterNumber":2,"parameterNumberName":"U-component_of_WINDS"},"data":[0,0,0,0,0,0,0,0,0,0,0,0,0,0,0,0,0,0,0,0,0,0,0,0,0,0,0,0,0,0,0,0,0,0,0,0,0,0,0,0,0,0,0,0,0,0,0,0,0,0,0,0,0,0,0,0,0,0,2.0479,2.048,0,2.0585,2.0587,2.0588,2.0634,2.0634,2.0634,2.0634,2.0742,2.0745,2.0748,0,0,0,0,0,0,0,0,0,0,0,0,0,2.0314,2.0316,2.0478,2.048,2.0481,2.0585,2.0587,2.0588,2.0634,2.0634,2.0634,2.0634,2.0741,2.0745,2.0749,0,0,0,0,0,0,0,0,0,0,0,0,0,2.0399,2.0317,2.0478,2.0517,2.0521,2.0585,2.0587,2.0589,2.0634,2.0634,2.0634,2.0634,2.074,2.0745,2.0749,2.0782,0,0,2.0763,2.0765,0,0,0,0,0,0,0,0,2.0394,2.0405,2.051,2.0514,2.0519,2.0596,2.0569,2.0654,2.0634,2.0591,2.0634,2.0633,2.0694,2.0702,2.0723,2.0788,2.0792,2.0764,2.0766,2.0768,2.077,0,0,0,0,0,0,0,2.0388,2.0401,2.0521,2.0511,2.0517,2.0528,2.054,2.0585,2.0643,2.0595,2.0599,2.0611,2.0697,2.0718,2.0726,2.0794,2.0763,2.0768,2.077,2.0772,2.0892,2.0892,0,0,0,0,0,0,2.0376,2.0396,2.0517,2.0524,2.0455,2.0532,2.0545,2.0572,2.0642,2.0653,2.0611,2.0613,2.0711,2.072,2.073,2.0774,2.0768,2.0773,2.0775,2.0892,2.0892,2.0893,0,0,0,0,0,0,2.0372,2.0387,2.0513,2.0461,2.0478,2.0535,2.0565,2.0574,2.0596,2.0654,2.0665,2.0623,2.0711,2.0723,2.0769,2.0778,2.0775,2.0779,2.0891,2.0892,2.0892,2.0862,0,0,0,0,0,0,2.0368,2.0385,2.0398,2.0461,2.048,2.0551,2.0565,2.0576,2.0604,2.0607,2.0668,2.0678,2.0712,2.0762,2.0774,2.0785,2.0782,2.089,2.0891,2.0892,2.0862,2.0861,2.086,0,0,0,0,0,2.0362,2.0385,2.0399,2.0413,2.0498,2.0551,2.0562,2.0601,2.0604,2.0618,2.0656,2.0676,2.0775,2.0766,2.078,2.0792,2.089,2.0891,2.0892,2.0863,2.0861,2.086,0,0,0,0,0,0,2.0322,2.0394,2.041,2.0454,2.0496,2.0559,2.0577,2.0598,2.064,2.0641,2.0687,2.07,2.0742,2.0772,2.0761,2.0828,2.0834,2.0838,2.0807,2.0807,2.0806,2.0798,2.0786,0,0,0,0,0,2.0318,2.0355,2.0416,2.045,2.047,2.052,2.0544,2.057,2.0616,2.0633,2.0674,2.0717,2.0758,2.0784,2.0825,2.0867,2.0881,2.0882,2.0881,2.088,2.0883,2.0907,2.0909,2.0896,2.0896,2.0896,0,0,2.0311,2.0355,2.0376,2.0443,2.0478,2.0516,2.0534,2.0573,2.0601,2.0639,2.0685,2.0717,2.0768,2.0812,2.0833,2.0838,2.0889,2.0881,2.088,2.0883,2.0909,2.091,2.0911,2.0896,2.0896,2.0896,0,0,2.0317,2.0354,2.0386,2.0422,2.0475,2.0509,2.0516,2.0576,2.0598,2.0645,2.0675,2.0709,2.0779,2.0814,2.0841,2.0861,2.0881,2.0873,2.0868,2.0892,2.0893,2.0894,2.0902,2.0904,2.0876,2.0875,2.0875,0,2.0301,2.0359,2.04,2.0437,2.0466,2.0503,2.0536,2.0568,2.0632,2.0651,2.0655,2.0744,2.0781,2.0834,2.0839,2.0859,2.087,2.0866,2.089,2.0891,2.0893,2.09,2.0903,2.0874,2.0874,2.0874,2.0875,0,2.0337,2.0376,2.0396,2.0457,2.0488,2.0523,2.057,2.0596,2.062,2.0652,2.07,2.0745,2.0797,2.0811,2.0834,2.0868,2.0869,2.0881,2.0888,2.0892,2.09,2.0903,2.0872,2.0873,2.0873,2.0873,0,0,2.0321,2.0405,2.0411,2.044,2.0502,2.0533,2.057,2.062,2.0642,2.0685,2.0717,2.0776,2.0787,2.0818,2.0845,2.0866,2.088,2.0876,2.0878,2.0875,2.092,2.091,2.0913,2.0894,2.0894,2.0895,2.0916,0,2.0335,2.0403,2.0441,2.0492,2.053,2.0565,2.0597,2.0639,2.067,2.0707,2.0742,2.0782,2.0795,2.0813,2.0835,2.0873,2.0889,2.0872,2.0924,2.0925,2.091,2.0917,2.0907,2.0924,2.0919,2.0919,2.092,0,2.0362,2.0404,2.046,2.0518,2.0535,2.0563,2.0613,2.0647,2.0695,2.0716,2.0751,2.0778,2.0819,2.0822,2.0879,2.0866,2.089,2.0912,2.0913,2.0919,2.0923,2.0924,2.0931,2.0933,2.0925,2.0925,2.0924,0,2.0344,2.0416,2.0458,2.0482,2.0551,2.057,2.0599,2.0647,2.0675,2.0718,2.0737,2.0784,2.081,2.0846,2.0886,2.0885,2.0938,2.0945,2.0957,2.0956,2.0967,2.0965,2.0978,2.0982,2.0982,2.0981,2.0981,0,2.0357,2.0389,2.0452,2.0478,2.0515,2.0559,2.0595,2.0627,2.0669,2.0703,2.0736,2.0767,2.0817,2.0854,2.0885,2.0927,2.0939,2.0957,2.0965,2.0954,2.0952,2.097,2.097,2.0982,2.0982,2.0982,2.0982,0,2.0344,2.0387,2.0436,2.0497,2.0514,2.0538,2.0591,2.0618,2.0652,2.0693,2.0705,2.0758,2.0803,2.0846,2.0907,2.0928,2.097,2.098,2.0953,2.0958,2.0967,2.0966,2.0992,2.0998,2.0997,2.0997,2.0997,0,2.0349,2.0375,2.044,2.0464,2.0493,2.0532,2.0561,2.0605,2.0634,2.0691,2.0711,2.0758,2.0799,2.0869,2.0913,2.0959,2.0971,2.0977,2.0978,2.0967,2.0971,2.0969,2.0972,2.0976,2.0976,2.0975,2.0975,0,2.0354,2.0374,2.0414,2.0462,2.0496,2.0535,2.0576,2.0594,2.0646,2.0677,2.0723,2.0755,2.0817,2.0863,2.0915,2.0946,2.0969,2.0975,2.098,2.0969,2.0952,2.0962,2.095,2.0974,2.0974,2.0974,2.0974,2.0974,2.0351,2.0375,2.0425,2.0468,2.0504,2.0541,2.057,2.0607,2.0647,2.07,2.0724,2.0771,2.0819,2.0891,2.0921,2.0959,2.0964,2.0972,2.0974,2.0975,2.0973,2.0946,2.0968,2.0968,2.0969,2.0969,2.0969,0,2.0357,2.0391,2.0431,2.0487,2.0521,2.0541,2.0587,2.0615,2.0656,2.0698,2.0738,2.0791,2.0837,2.0885,2.0933,2.0954,2.0966,2.0965,2.0964,2.0971,2.0965,2.0956,2.0955,2.0955,2.0955,2.0955,2.0955,2.0955,2.0365,2.0408,2.0433,2.0494,2.0528,2.0574,2.0599,2.0634,2.0669,2.0727,2.0765,2.0796,2.0841,2.0893,2.0936,2.0949,2.0965,2.0961,2.0977,2.097,2.0971,2.0972,2.0964,2.0964,2.0964,2.098,2.098,2.098]},{"header":{"parameterUnit":"m.s-1","parameterCategory":1,"la1":30.2991,"la2":30.254,"lo1":-89.0895,"lo2":-89.0444,"dy":0.0017,"dx":0.0017,"nx":28,"ny":28,"refTime":"2025-07-31T03:00:00:Z","depth":0,"parameterNumber":3,"parameterNumberName":"V-component_of_WINDS"},"data":[0,0,0,0,0,0,0,0,0,0,0,0,0,0,0,0,0,0,0,0,0,0,0,0,0,0,0,0,0,0,0,0,0,0,0,0,0,0,0,0,0,0,0,0,0,0,0,0,0,0,0,0,0,0,0,0,0,0,-1.4542,-1.4543,0,-1.4608,-1.4609,-1.4609,-1.4606,-1.4605,-1.4604,-1.4603,-1.4668,-1.4671,-1.4673,0,0,0,0,0,0,0,0,0,0,0,0,0,-1.4413,-1.4415,-1.4542,-1.4543,-1.4544,-1.4608,-1.4609,-1.461,-1.4606,-1.4605,-1.4604,-1.4603,-1.4667,-1.467,-1.4674,0,0,0,0,0,0,0,0,0,0,0,0,0,-1.4473,-1.4416,-1.4542,-1.455,-1.4551,-1.4608,-1.4609,-1.461,-1.4607,-1.4605,-1.4604,-1.4603,-1.4666,-1.467,-1.4674,-1.4726,0,0,-1.4686,-1.4687,0,0,0,0,0,0,0,0,-1.447,-1.4478,-1.4548,-1.455,-1.4551,-1.4598,-1.4587,-1.4649,-1.4607,-1.4586,-1.4603,-1.4602,-1.4646,-1.4651,-1.4666,-1.4729,-1.4732,-1.4686,-1.4689,-1.469,-1.4691,0,0,0,0,0,0,0,-1.4465,-1.4475,-1.4568,-1.4549,-1.4551,-1.455,-1.4557,-1.4599,-1.4622,-1.4587,-1.4587,-1.4595,-1.4646,-1.4663,-1.4668,-1.4733,-1.4686,-1.4689,-1.4692,-1.4693,-1.4843,-1.4844,0,0,0,0,0,0,-1.446,-1.4471,-1.4566,-1.457,-1.4506,-1.4553,-1.4561,-1.4584,-1.4622,-1.4627,-1.4596,-1.4595,-1.4657,-1.4663,-1.467,-1.4735,-1.469,-1.4694,-1.4696,-1.4841,-1.4843,-1.4845,0,0,0,0,0,0,-1.4457,-1.4468,-1.4563,-1.4521,-1.4533,-1.4557,-1.4583,-1.4586,-1.4603,-1.4629,-1.4633,-1.4609,-1.4656,-1.4665,-1.4713,-1.4737,-1.4696,-1.4699,-1.4839,-1.4842,-1.4844,-1.4864,0,0,0,0,0,0,-1.4453,-1.4467,-1.4487,-1.4521,-1.4535,-1.4605,-1.4584,-1.4588,-1.461,-1.4608,-1.4642,-1.4646,-1.4655,-1.4707,-1.4717,-1.4742,-1.4702,-1.4837,-1.484,-1.4843,-1.4861,-1.4867,-1.4871,0,0,0,0,0,-1.4449,-1.4489,-1.4488,-1.45,-1.4561,-1.4606,-1.4614,-1.4625,-1.4611,-1.4632,-1.4649,-1.4645,-1.4733,-1.4712,-1.4723,-1.4749,-1.4836,-1.4839,-1.4843,-1.4859,-1.4865,-1.4871,0,0,0,0,0,0,-1.4456,-1.4494,-1.4493,-1.4546,-1.4573,-1.4606,-1.4632,-1.4632,-1.4663,-1.466,-1.4671,-1.4679,-1.4728,-1.4743,-1.4719,-1.4802,-1.4782,-1.4788,-1.4791,-1.4797,-1.4802,-1.4798,-1.4705,0,0,0,0,0,-1.4464,-1.4498,-1.4529,-1.4573,-1.4587,-1.4607,-1.4627,-1.4634,-1.4662,-1.4673,-1.4694,-1.4721,-1.4755,-1.4777,-1.4809,-1.4863,-1.4871,-1.4887,-1.4892,-1.4896,-1.4901,-1.4933,-1.4941,-1.4857,-1.4857,-1.4857,0,0,-1.448,-1.4505,-1.4526,-1.4575,-1.4597,-1.4632,-1.4617,-1.4654,-1.4681,-1.4678,-1.4726,-1.4742,-1.4773,-1.4825,-1.4848,-1.4839,-1.4926,-1.4901,-1.4904,-1.4907,-1.4937,-1.4945,-1.4952,-1.486,-1.4859,-1.4859,0,0,-1.4528,-1.455,-1.459,-1.4613,-1.4647,-1.466,-1.467,-1.4703,-1.4715,-1.4762,-1.4762,-1.4793,-1.4851,-1.4874,-1.4893,-1.4952,-1.495,-1.4962,-1.4989,-1.502,-1.5026,-1.5032,-1.5055,-1.5062,-1.4967,-1.4967,-1.4967,0,-1.4544,-1.4598,-1.461,-1.4649,-1.4671,-1.4672,-1.4713,-1.4734,-1.4776,-1.4792,-1.4781,-1.4855,-1.4876,-1.4934,-1.4948,-1.4963,-1.4975,-1.4959,-1.5025,-1.5031,-1.5036,-1.5058,-1.5066,-1.4969,-1.4969,-1.4969,-1.4968,0,-1.4617,-1.4654,-1.4682,-1.4725,-1.475,-1.4789,-1.4807,-1.4831,-1.4836,-1.4851,-1.49,-1.4926,-1.4964,-1.4978,-1.4982,-1.5037,-1.5031,-1.5022,-1.5002,-1.5046,-1.5066,-1.5074,-1.4971,-1.497,-1.497,-1.497,0,0,-1.467,-1.4721,-1.4731,-1.4751,-1.479,-1.4819,-1.4859,-1.4898,-1.4919,-1.4948,-1.4982,-1.5032,-1.5025,-1.5047,-1.5054,-1.508,-1.5128,-1.5069,-1.507,-1.508,-1.5192,-1.5199,-1.5208,-1.5126,-1.5128,-1.5129,-1.5189,0,-1.4723,-1.4795,-1.4808,-1.487,-1.4906,-1.4909,-1.4943,-1.4971,-1.4986,-1.5018,-1.5035,-1.5071,-1.5058,-1.5071,-1.5098,-1.5116,-1.515,-1.5112,-1.5158,-1.516,-1.5151,-1.5218,-1.5225,-1.5281,-1.5197,-1.5199,-1.52,0,-1.4794,-1.4828,-1.4894,-1.493,-1.4946,-1.4977,-1.5015,-1.5045,-1.5077,-1.5086,-1.5112,-1.5116,-1.5158,-1.5136,-1.5194,-1.5168,-1.5188,-1.52,-1.5202,-1.5207,-1.5183,-1.5226,-1.5299,-1.5307,-1.5212,-1.5211,-1.521,0,-1.4828,-1.489,-1.4938,-1.4955,-1.4998,-1.502,-1.5038,-1.5069,-1.5092,-1.5125,-1.514,-1.5177,-1.5197,-1.5226,-1.524,-1.5223,-1.5298,-1.5277,-1.5307,-1.5307,-1.5323,-1.5322,-1.5401,-1.5334,-1.5334,-1.5334,-1.5334,0,-1.4887,-1.4927,-1.4954,-1.4984,-1.503,-1.5045,-1.509,-1.5108,-1.5136,-1.5169,-1.5173,-1.5204,-1.5221,-1.5254,-1.5266,-1.5313,-1.5322,-1.5331,-1.5333,-1.5331,-1.533,-1.5344,-1.5341,-1.5336,-1.5336,-1.5335,-1.5335,0,-1.4932,-1.4952,-1.5005,-1.5042,-1.5052,-1.5085,-1.5116,-1.5145,-1.5161,-1.5203,-1.5214,-1.5239,-1.5279,-1.5296,-1.5344,-1.5352,-1.5407,-1.5406,-1.5397,-1.5398,-1.5428,-1.5425,-1.5519,-1.5533,-1.5456,-1.5457,-1.5458,0,-1.4968,-1.5,-1.5041,-1.5065,-1.5085,-1.5122,-1.5146,-1.5162,-1.5187,-1.5227,-1.5251,-1.5292,-1.5325,-1.5389,-1.5411,-1.5449,-1.545,-1.548,-1.5456,-1.5453,-1.5452,-1.545,-1.5454,-1.5485,-1.5486,-1.5486,-1.5487,0,-1.5031,-1.504,-1.5075,-1.5115,-1.5145,-1.5176,-1.5207,-1.5226,-1.5247,-1.5275,-1.5317,-1.5343,-1.5394,-1.5435,-1.5474,-1.5493,-1.5494,-1.5495,-1.5504,-1.5502,-1.5496,-1.5501,-1.541,-1.5492,-1.5492,-1.5491,-1.5491,-1.5491,-1.5074,-1.5103,-1.5138,-1.5178,-1.5203,-1.5232,-1.5262,-1.5283,-1.5318,-1.5362,-1.5369,-1.5414,-1.5446,-1.55,-1.552,-1.5556,-1.5548,-1.5561,-1.5565,-1.5568,-1.5571,-1.549,-1.5563,-1.5563,-1.5563,-1.5563,-1.5562,0,-1.5138,-1.5161,-1.5198,-1.5242,-1.5274,-1.5273,-1.5307,-1.5334,-1.5374,-1.5405,-1.5438,-1.5487,-1.5527,-1.5553,-1.5593,-1.5617,-1.5618,-1.5627,-1.5626,-1.563,-1.5574,-1.5563,-1.5625,-1.5625,-1.5625,-1.5625,-1.5625,-1.5625,-1.5175,-1.5225,-1.5238,-1.5302,-1.5324,-1.5369,-1.5389,-1.5417,-1.5441,-1.5496,-1.553,-1.5547,-1.5576,-1.5619,-1.5656,-1.5662,-1.5678,-1.5687,-1.5693,-1.564,-1.5634,-1.5628,-1.5617,-1.569,-1.569,-1.5746,-1.5747,-1.5747]}]]